EW5586 Weather Reports


Display with metric or nautical units.
time (UTC)temp
F
wind
direction
speed
MPH
gust
MPH
rain 1hr
in
rain 24hr
in
rain mn
in
humidity
%
barometer
mb
20230203201446 -7 321 2.0 8.0 0.00 0.00 0.00 44 1025.3
20230203200445 -7 321 3.0 9.0 0.00 0.00 0.00 45 1025.1
20230203195943 -7 337 2.0 9.0 0.00 0.00 0.00 44 1025.1
20230203195435 -7 209 2.0 6.0 0.00 0.00 0.00 44 1025.1
20230203194935 -7 313 3.0 14.0 0.00 0.00 0.00 44 1025.1
20230203194434 -7 312 4.0 14.0 0.00 0.00 0.00 43 1024.9
20230203193933 -6 255 3.0 12.0 0.00 0.00 0.00 44 1024.9
20230203193432 -6 346 3.0 11.0 0.00 0.00 0.00 46 1024.8
20230203192932 -6 310 3.0 9.0 0.00 0.00 0.00 45 1024.8
20230203192432 -6 355 3.0 9.0 0.00 0.00 0.00 44 1024.8
20230203191933 -6 355 2.0 10.0 0.00 0.00 0.00 46 1024.8
20230203191433 -7 286 3.0 10.0 0.00 0.00 0.00 46 1024.8
20230203190430 -7 318 3.0 10.0 0.00 0.00 0.00 45 1024.7
20230203185931 -7 317 2.0 10.0 0.00 0.00 0.00 46 1024.7
20230203184929 -8 349 4.0 12.0 0.00 0.00 0.00 45 1024.6
20230203183927 -8 329 4.0 13.0 0.00 0.00 0.00 45 1024.7
20230203183427 -8 302 5.0 13.0 0.00 0.00 0.00 44 1024.6
20230203182926 -8 355 4.0 12.0 0.00 0.00 0.00 44 1024.6
20230203181927 -8 257 5.0 11.0 0.00 0.00 0.00 45 1024.6
20230203181426 -9 302 5.0 14.0 0.00 0.00 0.00 44 1024.6
20230203180927 -8 273 5.0 14.0 0.00 0.00 0.00 44 1024.5
20230203175426 -8 49 2.0 9.0 0.00 0.00 0.00 48 1024.4
20230203174926 -8 319 4.0 14.0 0.00 0.00 0.00 45 1024.4
20230203173921 -7 13 2.0 10.0 0.00 0.00 0.00 47 1024.3
20230203173414 -7 333 3.0 9.0 0.00 0.00 0.00 48 1024.4
20230203172908 -8 324 4.0 15.0 0.00 0.00 0.00 46 1024.4
20230203172402 -8 304 3.0 15.0 0.00 0.00 0.00 46 1024.3
20230203171856 -8 332 3.0 10.0 0.00 0.00 0.00 47 1024.4
20230203171350 -8 314 3.0 12.0 0.00 0.00 0.00 48 1024.5
20230203170844 -8 266 3.0 12.0 0.00 0.00 0.00 48 1024.4
20230203170338 -8 292 4.0 12.0 0.00 0.00 0.00 47 1024.4
20230203165832 -8 313 4.0 10.0 0.00 0.00 0.00 46 1024.4
20230203164820 -8 330 3.0 11.0 0.00 0.00 0.00 48 1024.4
20230203164314 -8 300 3.0 12.0 0.00 0.00 0.00 48 1024.4
20230203163809 -9 9 4.0 17.0 0.00 0.00 0.00 48 1024.4
20230203163302 -9 28 4.0 17.0 0.00 0.00 0.00 46 1024.4
20230203162756 -9 336 3.0 12.0 0.00 0.00 0.00 48 1024.4
20230203162252 -9 302 5.0 15.0 0.00 0.00 0.00 46 1024.5
20230203161744 -9 311 5.0 15.0 0.00 0.00 0.00 45 1024.5
20230203161238 -9 327 4.0 14.0 0.00 0.00 0.00 47 1024.5
20230203160732 -9 306 4.0 12.0 0.00 0.00 0.00 49 1024.5
20230203155720 -9 234 4.0 13.0 0.00 0.00 0.00 47 1024.6
20230203154708 -9 303 4.0 14.0 0.00 0.00 0.00 47 1024.5
20230203154201 -9 264 3.0 12.0 0.00 0.00 0.00 48 1024.5
20230203153656 -9 306 4.0 12.0 0.00 0.00 0.00 48 1024.4
20230203153150 -9 288 4.0 12.0 0.00 0.00 0.00 48 1024.4
20230203152644 -9 305 4.0 11.0 0.00 0.00 0.00 48 1024.3
20230203152137 -9 269 4.0 12.0 0.00 0.00 0.00 49 1024.3
20230203151632 -8 313 4.0 13.0 0.00 0.00 0.00 49 1024.3
20230203151126 -8 234 4.0 17.0 0.00 0.00 0.00 50 1024.2
20230203150621 -8 298 4.0 17.0 0.00 0.00 0.00 50 1024.1
20230203145608 -7 324 2.0 10.0 0.00 0.00 0.00 53 1023.7
20230203144606 -8 348 5.0 14.0 0.00 0.00 0.00 53 1023.7
20230203143606 -8 327 4.0 13.0 0.00 0.00 0.00 54 1023.6
20230203143107 -8 298 4.0 15.0 0.00 0.00 0.00 57 1023.6
20230203142607 -8 306 3.0 15.0 0.00 0.00 0.00 61 1023.5
20230203142107 -8 245 3.0 9.0 0.00 0.00 0.00 63 1023.4
20230203141606 -9 252 4.0 17.0 0.00 0.00 0.00 64 1023.4
20230203141107 -9 288 7.0 17.0 0.00 0.00 0.00 63 1023.4
20230203140106 -10 130 12.0 19.0 0.00 0.00 0.00 75 1023.3
20230203135106 -10 213 12.0 26.0 0.00 0.00 0.00 73 1023.1
20230203134606 -10 148 12.0 19.0 0.00 0.00 0.00 71 1023.0
20230203134106 -10 184 13.0 19.0 0.00 0.00 0.00 71 1022.9
20230203133608 -10 200 13.0 20.0 0.00 0.00 0.00 70 1022.8
20230203133106 -10 180 13.0 22.0 0.00 0.00 0.00 70 1022.6
20230203132607 -10 211 12.0 22.0 0.00 0.00 0.00 72 1022.6
20230203131606 -10 140 12.0 22.0 0.00 0.00 0.00 69 1022.4
20230203131104 -10 185 14.0 21.0 0.00 0.00 0.00 67 1022.3
20230203130604 -10 216 13.0 22.0 0.00 0.00 0.00 66 1022.2
20230203130100 -10 217 12.0 22.0 0.00 0.00 0.00 70 1022.0
20230203125558 -9 198 13.0 18.0 0.00 0.00 0.00 70 1021.9
20230203125059 -9 169 13.0 18.0 0.00 0.00 0.00 72 1021.8
20230203124556 -9 177 12.0 18.0 0.00 0.00 0.00 73 1021.6
20230203124055 -9 188 13.0 19.0 0.00 0.00 0.00 71 1021.5
20230203123554 -8 176 12.0 19.0 0.00 0.00 0.00 74 1021.5
20230203123052 -8 196 11.0 18.0 0.00 0.00 0.00 69 1021.4
20230203122552 -8 182 12.0 17.0 0.00 0.00 0.00 67 1021.2
20230203122053 -8 180 12.0 17.0 0.00 0.00 0.00 72 1021.1
20230203120552 -7 203 14.0 22.0 0.00 0.00 0.00 69 1020.7
20230203120052 -7 188 14.0 22.0 0.00 0.00 0.00 72 1020.6
20230203115552 -7 200 14.0 20.0 0.00 0.00 0.00 72 1020.5
20230203115052 -7 183 14.0 21.0 0.00 0.00 0.00 74 1020.4
20230203114550 -7 214 14.0 21.0 0.00 0.00 0.00 76 1020.3
20230203113538 -7 194 14.0 20.0 0.00 0.00 0.00 73 1020.2
20230203113038 -6 207 14.0 20.0 0.00 0.00 0.00 76 1020.2
20230203112538 -6 174 14.0 19.0 0.00 0.00 0.00 72 1020.1
20230203112038 -5 184 14.0 20.0 0.00 0.00 0.00 72 1019.9
20230203111010 -5 202 13.0 19.0 0.00 0.00 0.00 70 1019.7
20230203110510 -4 197 12.0 19.0 0.00 0.00 0.00 72 1019.6
20230203110010 -4 200 12.0 20.0 0.00 0.00 0.00 67 1019.5
20230203105008 -4 188 12.0 18.0 0.00 0.00 0.00 67 1019.3
20230203104508 -4 171 16.0 18.0 0.00 0.00 0.00 64 1019.2
20230203104008 -3 147 16.0 20.0 0.00 0.00 0.00 64 1019.0
20230203103508 -3 169 16.0 22.0 0.00 0.00 0.00 64 1019.0
20230203102503 -3 153 14.0 21.0 0.00 0.00 0.00 65 1018.8
20230203102002 -3 156 15.0 21.0 0.00 0.00 0.00 63 1018.7
20230203101503 -2 157 15.0 23.0 0.00 0.00 0.00 67 1018.5
20230203101002 -2 153 16.0 23.0 0.00 0.00 0.00 64 1018.5
20230203100500 -2 160 17.0 25.0 0.00 0.00 0.00 65 1018.5
20230203100000 -2 144 18.0 27.0 0.00 0.00 0.00 62 1018.4
20230203095458 -1 149 17.0 27.0 0.00 0.00 0.00 70 1018.2
20230203094956 -1 183 16.0 22.0 0.00 0.00 0.00 70 1018.2
20230203094456 -1 189 16.0 22.0 0.00 0.00 0.00 70 1018.0
20230203093954 -1 180 15.0 23.0 0.00 0.00 0.00 70 1018.0
20230203092950 0 159 17.0 24.0 0.00 0.00 0.00 71 1017.7
20230203091947 1 171 12.0 19.0 0.00 0.00 0.00 70 1017.5
20230203091447 1 189 12.0 19.0 0.00 0.00 0.00 68 1017.4
20230203090939 1 155 12.0 18.0 0.00 0.00 0.00 67 1017.2
20230203090433 1 150 13.0 23.0 0.00 0.00 0.00 66 1017.2
20230203085927 1 161 14.0 23.0 0.00 0.00 0.00 67 1017.0
20230203084915 2 169 13.0 20.0 0.00 0.00 0.00 68 1016.8
20230203084414 2 159 14.0 22.0 0.00 0.00 0.00 66 1016.7
20230203083411 2 166 12.0 19.0 0.00 0.00 0.00 67 1016.5
20230203082912 0 142 7.0 18.0 0.00 0.00 0.00 1016.5
20230203082413 0 136 7.0 16.0 0.00 0.00 0.00 1016.4
20230203081410 0 0.0 0.0 0.00 0.00 0.00 1016.1
20230203080907 0 0.0 0.0 0.00 0.00 0.00 1016.1
20230203075900 0 0.0 0.0 0.00 0.00 0.00 1015.9
20230203075308 0 0.0 0.0 0.00 0.00 0.00 1015.8
20230203074802 0 0.0 0.0 0.00 0.00 0.00 1015.7
20230203073705 0 0.0 0.0 0.00 0.00 0.00 1015.5
20230203073202 0 0.0 0.0 0.00 0.00 0.00 1015.4
20230203072608 0 0.0 0.0 0.00 0.00 0.00 1015.3
20230203072106 0 0.0 0.0 0.00 0.00 0.00 1015.1
20230203071513 0 0.0 0.0 0.00 0.00 0.00 1015.0
20230203071005 0 0.0 0.0 0.00 0.00 0.00 1015.0
20230203070504 0 0.0 0.0 0.00 0.00 0.00 1014.9
20230203065910 0 0.0 0.0 0.00 0.00 0.00 1014.7
20230203065407 0 0.0 0.0 0.00 0.00 0.00 1014.6
20230203064811 0 0.0 0.0 0.00 0.00 0.00 1014.5
20230203063808 0 0.0 0.0 0.00 0.00 0.00 1014.2
20230203063305 0 0.0 0.0 0.00 0.00 0.00 1014.0
20230203062803 0 0.0 0.0 0.00 0.00 0.00 1013.9
20230203062302 0 0.0 0.0 0.00 0.00 0.00 1013.9
20230203061707 6 0.0 0.0 0.00 0.00 0.00 58 1013.7
20230203061205 6 319 7.0 6.0 0.00 0.00 0.00 58 1013.5
20230203060637 6 319 7.0 21.0 0.00 0.00 0.00 58 1013.3
20230203060125 6 319 7.0 21.0 0.00 0.00 0.00 58 1013.4
20230203055622 7 294 7.0 21.0 0.00 0.00 0.00 58 1013.2
20230203055121 7 347 5.0 21.0 0.00 0.00 0.00 59 1013.1
20230203054121 7 295 5.0 14.0 0.00 0.00 0.00 59 1013.0
20230203053621 8 5 6.0 18.0 0.00 0.00 0.00 59 1012.8
20230203052621 8 46 3.0 16.0 0.00 0.00 0.00 60 1012.8
20230203052121 8 19 2.0 12.0 0.00 0.00 0.00 60 1012.7
20230203051622 9 355 4.0 13.0 0.00 0.00 0.00 60 1012.6
20230203050622 9 315 6.0 15.0 0.00 0.00 0.00 60 1012.2
20230203050121 9 304 6.0 13.0 0.00 0.00 0.00 60 1012.0
20230203045621 10 5 6.0 15.0 0.00 0.00 0.00 60 1011.9
20230203045115 10 334 6.0 15.0 0.00 0.00 0.00 61 1011.7
20230203044610 10 355 6.0 16.0 0.00 0.00 0.00 61 1011.6
20230203043557 11 285 5.0 19.0 0.00 0.00 0.00 65 1011.2
20230203043052 12 339 4.0 11.0 0.00 0.00 0.00 67 1010.9
20230203042546 12 231 5.0 16.0 0.00 0.00 0.00 67 1010.6
20230203042039 12 344 5.0 16.0 0.00 0.00 0.00 68 1010.3
20230203041027 13 302 6.0 16.0 0.00 0.00 0.00 68 1009.9
20230203040522 13 327 5.0 14.0 0.00 0.00 0.00 69 1009.8
20230203040015 14 346 4.0 12.0 0.00 0.00 0.00 71 1009.4
20230203035509 14 15 5.0 12.0 0.00 0.00 0.00 71 1009.1
20230203035002 14 48 6.0 18.0 0.00 0.00 0.00 71 1008.9
20230203033949 15 37 7.0 19.0 0.00 0.00 0.00 72 1008.7
20230203033443 15 302 9.0 26.0 0.00 0.00 0.00 73 1008.4
20230203032937 16 0 9.0 26.0 0.00 0.00 0.00 75 1008.3
20230203032432 17 350 7.0 22.0 0.00 0.00 0.00 78 1008.0
20230203031926 17 319 7.0 19.0 0.00 0.00 0.00 81 1007.8
20230203030913 18 325 5.0 16.0 0.00 0.00 0.00 85 1007.4
20230203025359 20 313 7.0 17.0 0.00 0.00 0.00 85 1007.1
20230203024402 21 21 8.0 30.0 0.00 0.00 0.00 83 1006.7
20230203023859 22 0 9.0 30.0 0.00 0.00 0.00 80 1006.4
20230203023359 24 5 9.0 20.0 0.00 0.00 0.00 76 1006.2
20230203022400 28 309 5.0 20.0 0.00 0.00 0.00 78 1005.4
20230203021357 29 321 4.0 14.0 0.00 0.00 0.00 82 1004.7
20230203020357 30 38 7.0 19.0 0.00 0.00 0.00 81 1004.7
20230203015859 31 315 5.0 19.0 0.00 0.00 0.00 78 1004.6
20230203015357 32 317 2.0 12.0 0.00 0.00 0.00 77 1004.4
20230203014857 32 329 4.0 15.0 0.00 0.00 0.00 77 1004.1
20230203014357 32 291 4.0 15.0 0.00 0.00 0.00 77 1004.0
20230203013357 32 237 5.0 21.0 0.00 0.00 0.00 78 1003.9
20230203012857 32 273 6.0 21.0 0.00 0.00 0.00 79 1003.9
20230203012357 32 231 6.0 22.0 0.00 0.00 0.00 80 1003.8
20230203011857 32 205 5.0 22.0 0.00 0.00 0.00 81 1003.8
20230203011357 32 223 5.0 19.0 0.00 0.00 0.00 82 1003.7
20230203010358 32 218 8.0 21.0 0.00 0.00 0.00 82 1003.8
20230203005858 32 219 9.0 21.0 0.00 0.00 0.00 82 1003.7
20230203005357 32 240 9.0 21.0 0.00 0.00 0.00 82 1003.7
20230203004356 32 215 9.0 20.0 0.00 0.00 0.00 81 1003.7
20230203003357 33 246 12.0 25.0 0.00 0.00 0.00 78 1003.8
20230203002358 33 215 9.0 26.0 0.00 0.00 0.00 75 1003.7
20230203001351 33 244 10.0 21.0 0.00 0.00 0.00 73 1003.9
20230203000346 33 221 10.0 20.0 0.00 0.00 0.00 70 1004.0
20230202235843 34 198 11.0 28.0 0.00 0.00 0.00 69 1004.0
20230202234843 34 199 10.0 20.0 0.00 0.00 0.00 68 1004.3
20230202234344 34 196 9.0 19.0 0.00 0.00 0.00 66 1004.2
20230202233844 34 200 13.0 29.0 0.00 0.00 0.00 65 1004.1
20230202232844 34 195 12.0 28.0 0.00 0.00 0.00 65 1004.3
20230202232344 34 206 12.0 31.0 0.00 0.00 0.00 64 1004.3
20230202231343 34 229 11.0 27.0 0.00 0.00 0.00 64 1004.4
20230202230843 34 213 14.0 28.0 0.00 0.00 0.00 63 1004.6
20230202225839 34 209 12.0 27.0 0.00 0.00 0.00 64 1004.8
20230202224840 34 248 15.0 30.0 0.00 0.00 0.00 65 1004.7
20230202224339 33 206 17.0 30.0 0.00 0.00 0.00 67 1004.8
20230202223839 33 158 15.0 26.0 0.00 0.00 0.00 71 1004.8
20230202223339 33 208 16.0 27.0 0.00 0.00 0.00 69 1004.8
20230202222839 33 204 18.0 29.0 0.00 0.00 0.00 72 1004.9
20230202221839 33 216 20.0 30.0 0.00 0.00 0.00 72 1005.0
20230202220839 33 193 20.0 31.0 0.00 0.00 0.00 74 1005.2
20230202215339 32 202 20.0 29.0 0.00 0.00 0.00 73 1005.3
20230202214339 32 178 19.0 28.0 0.00 0.00 0.00 74 1005.4
20230202213838 32 244 20.0 30.0 0.00 0.00 0.00 74 1005.5
20230202213338 32 210 21.0 32.0 0.00 0.00 0.00 73 1005.5
20230202212839 32 217 22.0 32.0 0.00 0.00 0.00 73 1005.6
20230202212339 32 221 23.0 32.0 0.00 0.00 0.00 73 1005.8
20230202211839 32 198 23.0 33.0 0.00 0.00 0.00 73 1005.9
20230202211339 31 230 22.0 33.0 0.00 0.00 0.00 72 1006.0
20230202210839 31 182 23.0 33.0 0.00 0.00 0.00 71 1006.1
20230202210339 31 207 23.0 33.0 0.00 0.00 0.00 70 1006.1
20230202205839 31 163 23.0 34.0 0.00 0.00 0.00 73 1006.1
20230202205339 31 229 24.0 34.0 0.00 0.00 0.00 73 1006.2
20230202204837 31 215 23.0 33.0 0.00 0.00 0.00 72 1006.1
20230202203839 31 212 22.0 31.0 0.00 0.00 0.00 73 1006.4
20230202203335 31 220 23.0 33.0 0.00 0.00 0.00 73 1006.6
20230202202838 31 198 25.0 33.0 0.00 0.00 0.00 73 1006.6
20230202201835 31 181 23.0 34.0 0.00 0.00 0.00 76 1006.8